TimeCDT,TemperatureF,Dew PointF,Humidity,Sea Level PressureIn,VisibilityMPH,Wind Direction,Wind SpeedMPH,Gust SpeedMPH,PrecipitationIn,Events,Conditions,WindDirDegrees,DateUTC
12:53 AM,35.1,21.0,57,30.20,10.0,SW,4.6,-,N/A,,Clear,230,2013-03-20 05:53:00
1:53 AM,35.1,23.0,61,30.19,10.0,SSW,3.5,-,N/A,,Clear,210,2013-03-20 06:53:00
2:53 AM,34.0,24.1,67,30.18,10.0,SW,4.6,-,N/A,,Clear,230,2013-03-20 07:53:00
3:53 AM,33.1,26.1,75,30.19,10.0,WSW,3.5,-,N/A,,Clear,240,2013-03-20 08:53:00
4:53 AM,34.0,28.0,79,30.19,10.0,WNW,13.8,-,N/A,,Partly Cloudy,300,2013-03-20 09:53:00
5:53 AM,32.0,26.1,79,30.20,10.0,NW,9.2,-,N/A,,Clear,310,2013-03-20 10:53:00
6:53 AM,30.9,21.9,69,30.22,10.0,NW,10.4,-,N/A,,Clear,310,2013-03-20 11:53:00
7:53 AM,30.9,19.9,64,30.25,10.0,NNW,18.4,23.0,N/A,,Clear,340,2013-03-20 12:53:00
8:20 AM,30.2,19.4,64,30.26,10.0,NNW,15.0,23.0,N/A,,Mostly Cloudy,330,2013-03-20 13:20:00
8:31 AM,30.2,19.4,64,30.26,10.0,NNW,15.0,-,N/A,,Mostly Cloudy,340,2013-03-20 13:31:00
8:42 AM,30.2,19.4,64,30.26,10.0,NNW,16.1,-,N/A,,Overcast,340,2013-03-20 13:42:00
8:53 AM,30.0,19.9,66,30.27,10.0,NNW,16.1,-,N/A,,Overcast,330,2013-03-20 13:53:00
9:12 AM,30.2,17.6,60,30.27,10.0,NNW,17.3,-,N/A,,Overcast,330,2013-03-20 14:12:00
9:53 AM,30.0,17.1,59,30.29,10.0,NW,19.6,-,N/A,,Mostly Cloudy,310,2013-03-20 14:53:00
10:53 AM,30.0,17.1,59,30.29,10.0,NW,18.4,25.3,N/A,,Overcast,310,2013-03-20 15:53:00
11:53 AM,30.9,17.1,57,30.29,10.0,NNW,18.4,29.9,N/A,,Scattered Clouds,340,2013-03-20 16:53:00
12:53 PM,33.1,17.1,52,30.26,10.0,NW,20.7,25.3,N/A,,Scattered Clouds,320,2013-03-20 17:53:00
1:53 PM,33.1,16.0,50,30.24,10.0,NW,21.9,27.6,N/A,,Mostly Cloudy,310,2013-03-20 18:53:00
2:53 PM,34.0,19.0,54,30.21,10.0,NW,17.3,25.3,N/A,,Mostly Cloudy,310,2013-03-20 19:53:00
3:53 PM,34.0,14.0,44,30.19,10.0,West,16.1,25.3,N/A,,Mostly Cloudy,280,2013-03-20 20:53:00
4:53 PM,34.0,14.0,44,30.18,10.0,WNW,19.6,24.2,N/A,,Mostly Cloudy,300,2013-03-20 21:53:00
5:53 PM,33.1,12.9,43,30.18,10.0,NW,19.6,27.6,N/A,,Scattered Clouds,310,2013-03-20 22:53:00
6:53 PM,30.9,12.0,46,30.18,10.0,NW,19.6,24.2,N/A,,Scattered Clouds,320,2013-03-20 23:53:00
7:53 PM,30.9,12.0,46,30.17,10.0,NW,16.1,-,N/A,,Clear,320,2013-03-21 00:53:00
8:53 PM,30.0,12.0,47,30.16,10.0,NW,9.2,-,N/A,,Scattered Clouds,320,2013-03-21 01:53:00
9:53 PM,27.0,12.9,56,30.15,10.0,WNW,5.8,-,N/A,,Clear,300,2013-03-21 02:53:00
10:53 PM,26.1,12.9,58,30.14,10.0,NW,8.1,-,N/A,,Clear,310,2013-03-21 03:53:00
11:53 PM,27.0,12.9,56,30.14,10.0,North,6.9,-,N/A,,Clear,360,2013-03-21 04:53:00